Temp
80 81 78 78 78 79 79 79 77 76 75 75 73 74 72 74 74 75 75 74 75 74 74 74 74 73 74 72 72 72 67 65 70 68 69 70 68 68 70 70 72 69 69
75 77 78 78 76 76 75 78 78 77 74 76 76 78 76 75 75 75 74 74 74 74 74 74 74 74 75 73 72 70 64 62 63 61 62 65 68 69 67 69 69 67 70
75 76 76 76 76 74 73 75 77 78 76 76 76 75 75 74 70 73 72 73 74 74 74 74 74 74 74 72 70 67 67 60 59 61 63 56 61 63 65 63 66 65 67
72 76 77 76 75 74 75 74 76 78 76 75 75 73 74 72 73 74 74 71 73 74 74 73 74 73 74 72 71 66 65 62 61 56 58 58 60 58 62 62 62 63 63
70 72 75 78 79 76 73 72 75 78 78 75 75 73 73 76 77 74 73 70 69 73 73 73 73 73 73 73 70 63 63 66 65 62 56 55 57 61 61 60 62 61 61
69 71 74 76 76 76 73 72 73 76 77 75 75 73 72 74 72 72 71 69 68 69 71 72 73 73 72 69 68 66 63 60 63 64 62 58 61 61 60 58 58 58 60
67 68 70 73 74 74 72 71 73 75 74 73 73 72 72 73 71 72 71 67 66 66 69 70 70 70 68 65 65 63 63 60 62 59 56 63 59 60 62 59 59 55 58
68 69 71 71 72 69 71 69 72 74 74 72 72 74 72 70 72 74 73 69 67 71 71 70 69 68 65 63 62 59 57 57 57 56 59 56 59 59 59 58 55 53 53
68 69 70 70 71 72 71 70 71 73 74 73 73 73 72 70 69 71 72 70 71 70 66 67 65 63 62 59 58 57 55 56 54 54 50 56 56 56 56 55 54 52 48
62 63 66 67 69 71 70 68 70 74 74 73 73 73 72 71 70 69 69 69 68 64 63 63 62 61 58 57 57 54 56 51 51 50 54 54 54 52 53 52 52 51 49
60 61 64 65 65 66 67 66 66 68 70 72 72 72 72 71 70 68 66 65 63 63 63 61 60 59 57 56 54 54 52 48 47 53 49 51 51 51 51 50 50 49 48
59 61 62 63 65 66 66 67 66 65 67 70 71 71 71 69 66 64 62 60 59 62 61 60 58 57 54 51 50 50 47 48 48 48 50 49 49 48 48 49 47 48 48
60 61 62 62 62 63 65 66 66 67 67 69 69 69 66 63 62 59 56 57 57 59 58 57 55 53 51 50 49 45 45 45 47 49 49 48 47 47 47 47 46 47 47
58 60 61 61 62 62 63 64 65 66 67 67 65 61 58 60 56 57 55 54 55 55 55 54 52 49 48 50 44 44 43 44 49 47 48 47 47 46 46 46 46 45 41
56 58 58 60 62 62 63 64 63 63 64 62 58 56 57 56 56 54 54 53 53 53 54 53 51 49 47 44 43 45 44 46 45 45 44 45 44 41 42 44 43 41 39
55 57 58 60 60 61 61 61 62 61 61 60 58 55 54 53 53 52 51 51 51 52 52 52 50 47 44 40 41 45 45 43 42 42 39 43 41 40 38 38 38 38 38
55 56 58 59 59 60 60 60 62 61 59 59 55 53 52 49 49 50 50 49 49 49 50 49 47 44 41 39 39 40 46 41 43 38 41 39 41 41 43 38 37 36 36
55 56 58 58 59 60 61 61 62 60 57 57 54 51 51 44 41 47 43 41 45 45 47 43 43 41 39 38 37 37 39 42 41 40 39 40 42 42 41 41 40 39 38
56 56 59 59 60 60 60 59 59 59 56 55 53 52 51 45 40 39 38 36 37 37 37 40 38 36 36 37 36 37 38 34 33 35 39 41 40 37 38 38 35 35 34
54 56 58 59 59 59 59 57 57 57 56 55 54 54 52 47 43 38 36 37 39 36 38 36 35 36 34 36 36 39 36 35 36 37 37 36 39 36 36 38 36 33 34
53 55 56 55 57 59 57 54 55 54 56 57 54 53 52 46 44 40 38 38 37 38 38 36 35 36 37 36 36 37 40 38 37 37 36 38 36 37 36 36 35 34 34
53 53 52 53 56 57 57 54 54 50 53 55 52 51 49 44 40 37 37 37 37 35 36 35 34 35 36 36 36 36 36 37 37 35 37 35 36 36 36 35 34 34 33
53 54 53 52 53 55 56 51 52 49 45 43 43 43 42 39 37 35 34 35 36 35 35 34 33 34 35 36 36 36 35 35 36 38 36 35 36 35 34 34 34 33 34
53 54 51 50 49 52 52 51 47 46 43 41 38 36 35 35 35 36 36 36 36 36 35 34 33 33 33 34 35 35 36 32 36 34 37 35 34 34 34 34 34 35 35
53 52 50 49 50 52 49 45 42 43 43 40 36 36 36 36 34 36 37 37 37 38 37 36 34 33 32 33 34 34 35 36 35 35 36 36 36 35 35 34 34 35 35
52 52 52 50 50 52 48 47 45 43 38 35 35 35 35 35 35 35 34 35 36 36 38 37 36 35 35 34 34 35 35 35 33 37 35 33 34 34 34 33 33 34 33
MSLP
1003.59 1003.69 1003.86 1004.39 1004.84 1005.26 1005.62 1005.90 1006.53 1006.92 1008.02 1008.64 1009.08 1009.54 1009.64 1010.32 1010.75 1011.31 1011.70 1012.02 1012.29 1012.85 1013.37 1013.85 1014.46 1014.95 1015.48 1016.00 1016.50 1016.98 1017.53 1018.05 1018.31 1018.57 1018.53 1018.41 1018.66 1018.76 1018.83 1018.93 1018.88 1019.29 1019.57
1003.52 1003.58 1003.70 1003.67 1004.17 1004.40 1004.76 1005.09 1005.34 1005.89 1006.64 1007.16 1007.61 1008.11 1008.65 1009.33 1010.00 1010.48 1010.89 1011.31 1011.60 1011.98 1012.55 1013.09 1013.66 1014.30 1014.89 1015.51 1016.04 1016.60 1017.26 1018.00 1018.37 1018.64 1018.76 1018.59 1018.56 1018.56 1018.77 1018.86 1018.99 1019.30 1019.58
1002.99 1003.32 1003.61 1003.68 1003.64 1003.88 1004.05 1004.18 1004.27 1004.58 1005.31 1005.87 1006.97 1007.76 1008.49 1008.97 1009.37 1009.29 1009.64 1010.20 1010.86 1011.33 1011.70 1012.28 1013.03 1013.71 1014.27 1014.74 1015.42 1016.01 1016.48 1017.59 1018.45 1018.49 1018.57 1019.13 1018.75 1018.81 1018.78 1019.15 1019.26 1019.51 1019.64
1003.07 1003.18 1003.11 1003.10 1003.15 1003.09 1003.34 1003.57 1003.60 1003.91 1004.48 1005.38 1005.78 1006.10 1006.25 1006.79 1006.85 1007.60 1008.44 1009.32 1010.06 1010.47 1010.96 1011.68 1012.33 1012.98 1013.48 1013.96 1014.70 1015.32 1015.94 1016.72 1017.59 1018.60 1018.67 1018.85 1019.00 1018.98 1018.87 1019.26 1019.39 1019.63 1019.64
1002.73 1002.69 1002.61 1002.52 1002.27 1002.48 1002.64 1002.77 1002.90 1003.04 1003.50 1004.24 1004.65 1005.27 1005.71 1005.83 1006.30 1007.11 1007.86 1008.83 1009.46 1009.94 1010.37 1010.98 1011.76 1012.37 1012.92 1013.43 1014.07 1014.88 1015.53 1015.96 1016.56 1017.14 1018.28 1018.86 1019.21 1019.28 1019.18 1018.84 1018.92 1019.30 1019.38
1001.95 1001.89 1001.75 1001.85 1001.84 1002.05 1002.25 1002.38 1002.42 1002.33 1002.75 1003.41 1003.86 1004.23 1004.66 1005.22 1005.92 1006.37 1006.94 1007.90 1008.77 1009.24 1009.55 1010.16 1010.95 1011.66 1012.29 1012.94 1013.67 1014.29 1014.93 1015.59 1016.26 1016.70 1017.32 1017.76 1018.19 1018.61 1018.82 1018.97 1018.96 1018.94 1018.95
1001.72 1001.63 1001.36 1001.32 1001.34 1001.43 1001.40 1001.72 1001.90 1001.84 1002.19 1002.71 1003.28 1003.52 1003.97 1004.67 1005.02 1005.51 1006.31 1007.28 1007.93 1008.54 1008.81 1009.34 1010.22 1011.11 1011.97 1012.67 1013.33 1014.17 1014.86 1015.46 1016.05 1016.78 1017.32 1017.62 1018.03 1018.42 1018.80 1019.12 1019.12 1019.62 1019.27
1001.35 1001.33 1001.11 1000.88 1000.88 1000.85 1000.96 1001.12 1001.12 1001.14 1001.58 1002.12 1002.39 1002.72 1003.23 1003.77 1004.37 1004.78 1005.34 1006.05 1006.76 1007.20 1008.10 1009.00 1009.80 1010.71 1011.55 1012.44 1013.38 1014.31 1014.99 1015.42 1016.04 1016.73 1017.39 1018.06 1018.34 1018.86 1018.99 1019.22 1019.61 1019.51 1019.63
1001.21 1001.11 1000.97 1000.86 1000.61 1000.48 1000.42 1000.59 1000.72 1000.72 1001.00 1001.24 1001.76 1002.03 1002.41 1002.92 1003.29 1003.86 1004.52 1005.36 1006.17 1006.72 1007.64 1008.61 1009.57 1010.53 1011.52 1012.35 1013.41 1014.40 1015.29 1015.94 1016.72 1017.17 1017.68 1017.99 1018.59 1019.10 1019.39 1019.68 1020.02 1020.16 1019.69
1002.08 1001.90 1001.58 1001.16 1000.89 1000.63 1000.62 1000.75 1000.68 1000.39 1000.37 1000.61 1000.78 1000.98 1001.07 1001.77 1002.52 1003.16 1003.76 1004.67 1005.57 1006.63 1007.49 1008.32 1009.20 1010.26 1011.31 1012.18 1013.12 1014.23 1015.02 1015.58 1016.57 1017.31 1017.52 1018.14 1018.84 1019.28 1019.73 1020.10 1020.17 1020.18 1020.25
1002.50 1002.28 1002.05 1001.63 1001.20 1000.91 1000.74 1000.60 1000.53 1000.34 1000.01 999.99 1000.09 1000.35 1000.53 1000.96 1001.78 1002.48 1003.33 1004.31 1005.31 1006.18 1006.99 1007.91 1008.81 1009.76 1010.99 1012.07 1013.02 1014.09 1015.01 1015.92 1016.37 1017.00 1017.85 1018.11 1018.63 1019.14 1019.73 1020.12 1020.28 1020.23 1020.47
1003.17 1002.65 1002.16 1001.94 1001.53 1001.18 1000.75 1000.35 1000.04 1000.02 999.73 999.51 999.74 1000.05 1000.45 1000.89 1001.56 1002.28 1003.16 1004.18 1005.08 1005.84 1006.49 1007.49 1008.67 1009.77 1010.94 1011.96 1012.90 1013.99 1015.14 1015.60 1016.34 1017.36 1018.15 1018.34 1018.76 1019.38 1019.76 1019.99 1019.98 1020.20 1020.35
1003.23 1002.68 1002.17 1001.90 1001.76 1001.40 1000.86 1000.33 1000.03 999.70 999.48 999.34 999.40 999.65 1000.10 1000.80 1001.64 1002.40 1003.26 1004.05 1004.83 1005.60 1006.58 1007.52 1008.56 1009.73 1010.99 1012.00 1013.07 1013.96 1015.18 1016.16 1017.15 1017.49 1017.79 1018.19 1018.63 1019.13 1019.65 1019.80 1020.01 1020.10 1020.25
1003.34 1002.82 1002.29 1002.05 1001.82 1001.63 1001.19 1000.64 1000.21 999.96 999.55 999.43 999.52 999.93 1000.37 1000.90 1001.73 1002.43 1003.30 1004.07 1004.81 1005.49 1006.44 1007.42 1008.46 1009.52 1010.70 1011.78 1013.01 1013.95 1015.19 1015.86 1016.76 1017.62 1018.27 1018.17 1018.66 1018.88 1019.27 1019.55 1019.71 1020.11 1020.41
1003.57 1002.96 1002.47 1002.04 1001.80 1001.57 1001.19 1000.76 1000.37 1000.22 999.99 999.78 999.96 1000.22 1000.53 1001.12 1001.84 1002.62 1003.34 1004.08 1004.89 1005.53 1006.29 1007.32 1008.59 1009.59 1010.60 1011.71 1012.75 1014.03 1014.98 1016.21 1017.14 1018.13 1017.71 1018.06 1018.98 1019.03 1019.20 1019.29 1019.65 1020.14 1020.27
1003.45 1002.95 1002.48 1002.05 1001.73 1001.51 1001.18 1000.79 1000.35 1000.36 1000.26 1000.09 1000.12 1000.50 1000.91 1001.34 1001.94 1002.72 1003.48 1004.32 1005.08 1005.64 1006.47 1007.46 1008.36 1009.47 1010.78 1011.61 1012.59 1013.79 1014.87 1016.16 1016.87 1017.27 1017.62 1018.46 1019.05 1018.94 1019.17 1019.55 1019.92 1020.18 1020.20
1003.06 1002.72 1002.37 1001.90 1001.87 1001.56 1001.40 1000.91 1000.39 1000.04 1000.13 1000.04 1000.36 1000.66 1001.12 1001.64 1002.23 1002.90 1003.68 1004.34 1005.08 1005.92 1006.61 1007.61 1008.54 1009.89 1011.12 1012.02 1013.03 1014.04 1014.82 1015.83 1016.36 1016.82 1017.41 1018.19 1018.59 1018.80 1019.07 1019.54 1019.70 1019.91 1020.07
1003.05 1002.47 1001.96 1001.69 1001.63 1001.34 1001.10 1000.79 1000.43 1000.07 1000.01 999.91 1000.24 1000.92 1001.14 1001.68 1002.24 1002.84 1003.37 1004.34 1005.23 1005.82 1006.66 1007.74 1008.97 1010.07 1011.41 1012.37 1013.35 1014.10 1015.03 1015.92 1016.43 1017.25 1017.72 1018.04 1018.22 1018.80 1019.03 1019.29 1019.42 1019.57 1019.67
1002.53 1002.29 1001.82 1001.53 1001.12 1000.88 1000.72 1000.50 1000.18 999.85 999.77 1000.07 1000.27 1000.65 1001.32 1001.69 1002.14 1003.04 1003.92 1004.43 1005.44 1006.23 1007.03 1008.20 1009.25 1010.30 1011.64 1012.57 1013.36 1014.26 1015.18 1016.10 1016.82 1017.54 1017.72 1017.91 1018.45 1018.99 1019.14 1019.11 1019.27 1019.45 1019.57
1002.10 1001.67 1001.26 1000.87 1000.55 1000.32 1000.30 1000.11 999.88 999.81 999.73 999.66 999.74 1000.08 1000.77 1001.66 1002.32 1002.89 1003.75 1004.65 1005.78 1006.61 1007.43 1008.97 1010.03 1010.55 1011.75 1012.95 1013.85 1014.47 1015.22 1016.01 1016.77 1017.32 1017.87 1018.11 1018.52 1019.06 1019.01 1018.98 1019.07 1019.07 1019.27
1001.44 1001.14 1000.81 1000.43 1000.05 999.81 999.76 999.39 999.25 999.50 999.23 999.22 999.48 999.74 1000.28 1001.10 1002.19 1003.09 1003.85 1004.72 1005.96 1007.12 1008.28 1009.32 1010.22 1010.98 1011.67 1013.03 1013.90 1014.47 1014.99 1015.71 1016.51 1017.04 1017.70 1017.97 1018.51 1018.85 1018.99 1018.97 1018.95 1018.94 1019.02
1000.56 1000.39 1000.19 999.95 999.65 999.22 999.16 998.66 998.35 998.74 998.83 998.85 998.99 999.24 999.95 1000.92 1001.82 1002.97 1004.18 1004.84 1005.95 1006.81 1008.55 1009.41 1010.40 1011.26 1012.06 1012.93 1013.88 1014.33 1014.72 1015.49 1015.88 1016.65 1017.31 1017.84 1018.22 1018.41 1018.58 1018.78 1019.05 1019.00 1019.05
999.56 999.21 999.22 998.96 998.88 998.56 998.43 998.29 997.54 998.36 998.49 998.59 998.77 999.15 999.85 1000.92 1001.67 1002.46 1003.87 1005.09 1005.71 1006.87 1008.05 1009.05 1009.79 1011.26 1012.14 1013.21 1013.79 1014.28 1014.70 1015.34 1015.81 1016.36 1017.14 1017.73 1018.18 1018.38 1018.59 1018.71 1018.96 1019.05 1019.09
998.01 998.09 998.25 997.89 997.66 997.60 997.65 997.58 997.69 998.10 998.07 998.12 998.80 999.41 999.97 1000.89 1001.95 1002.48 1003.41 1004.29 1005.17 1005.98 1007.18 1008.67 1009.33 1010.94 1012.29 1013.16 1013.88 1014.23 1014.87 1015.38 1016.07 1016.73 1017.32 1017.78 1018.20 1018.53 1018.71 1018.92 1019.03 1019.21 1019.15
996.86 997.05 996.82 996.58 996.29 996.41 996.76 996.98 997.28 997.47 997.48 997.77 998.74 999.36 999.90 1000.71 1001.85 1002.33 1003.40 1004.26 1004.24 1005.13 1006.20 1007.41 1008.32 1009.96 1011.55 1012.45 1013.03 1013.59 1014.32 1015.05 1015.84 1016.61 1017.23 1017.59 1017.95 1018.23 1018.61 1018.95 1019.11 1019.08 1019.09
995.63 995.41 995.29 995.33 995.01 995.35 995.72 996.12 996.55 996.94 997.31 997.62 998.41 999.09 999.82 1000.72 1001.39 1002.17 1004.11 1005.10 1005.02 1005.16 1006.81 1007.71 1008.07 1009.85 1010.71 1012.01 1012.85 1013.64 1014.43 1015.22 1015.82 1016.38 1017.00 1017.55 1017.73 1018.18 1018.49 1018.77 1018.90 1018.98 1019.12
Wind_Speed
16 13 11 10 13 12 15 17 16 17 13 13 13 12 13 12 12 12 15 16 14 16 15 11 11 11 11 11 10 8 7 4 3 2 3 4 4 5 4 3 3 4 3
13 13 13 12 10 12 15 16 18 17 17 13 13 10 11 11 11 11 14 16 17 16 15 14 12 13 10 12 11 10 4 2 4 3 1 2 3 2 3 3 3 4 2
15 13 12 14 12 12 12 16 19 19 18 18 11 9 6 6 10 13 12 15 17 17 17 16 13 13 11 10 11 9 10 5 3 3 2 2 5 1 1 2 2 3 1
13 14 14 13 13 13 10 12 14 16 16 16 14 19 15 13 12 11 11 11 17 17 17 15 15 14 11 12 11 8 8 6 6 1 2 1 2 3 2 2 2 2 2
12 14 15 17 16 12 12 12 14 16 18 19 18 14 16 11 7 9 14 12 13 16 16 16 16 14 11 12 12 10 9 7 6 5 4 2 1 1 4 4 2 3 3
11 13 13 11 11 9 10 11 15 17 17 18 20 19 19 15 11 12 12 10 9 11 16 16 15 14 12 12 11 11 10 8 5 6 5 4 4 4 5 6 4 6 4
7 7 9 9 8 7 7 7 12 14 16 17 17 19 18 17 16 15 12 12 10 9 14 16 14 12 11 9 9 11 11 8 8 7 4 4 3 3 3 3 3 4 3
8 8 9 9 8 7 6 9 12 13 15 17 19 17 17 11 12 15 12 12 12 13 15 14 13 13 11 10 9 6 5 7 7 9 6 4 4 3 3 2 2 4 4
10 10 10 8 10 8 8 9 10 13 14 17 15 17 15 15 14 15 14 11 12 10 14 14 13 12 12 12 11 8 9 8 7 8 7 6 5 4 3 3 3 2 4
13 12 11 10 8 9 8 7 10 13 14 15 14 15 17 17 15 13 15 16 12 13 14 14 14 14 13 13 13 10 12 11 7 5 8 7 5 5 4 3 4 4 4
12 11 12 11 7 7 7 7 8 11 12 12 14 14 15 16 14 13 13 13 13 15 15 15 14 16 15 13 11 11 12 9 9 9 7 8 8 5 4 4 4 4 4
12 11 12 12 13 11 10 8 6 7 10 11 12 13 12 12 13 12 11 12 13 15 16 16 15 15 14 12 12 12 9 11 10 10 9 8 6 6 5 4 4 4 4
14 14 14 13 13 14 14 12 8 8 8 9 11 11 10 11 11 11 12 13 13 14 15 15 16 16 13 13 11 11 10 4 7 9 9 9 8 7 5 4 4 3 3
16 14 13 14 14 12 13 13 11 8 7 6 6 7 8 9 10 11 12 13 13 15 15 14 15 15 14 15 12 12 10 10 9 9 8 8 7 7 6 5 3 3 3
16 17 15 14 15 14 13 14 11 9 6 5 5 7 8 10 10 10 11 12 13 13 14 16 14 14 13 10 13 13 13 12 11 10 9 8 6 6 4 3 3 3 4
17 18 16 17 16 14 14 13 12 8 7 7 8 7 8 9 10 11 12 12 11 13 14 15 17 15 8 17 17 16 13 12 11 10 8 8 10 9 7 5 1 3 5
19 19 17 15 13 12 11 14 15 10 8 9 7 8 8 8 10 11 12 12 13 14 14 14 14 13 11 20 19 15 12 10 11 9 10 8 6 6 5 5 5 5 6
18 17 16 14 12 13 13 13 13 11 9 10 9 8 9 10 8 11 12 11 12 14 14 13 13 13 11 20 19 15 10 10 10 8 7 7 7 5 3 2 2 4 4
14 14 16 15 15 15 12 12 13 12 9 9 10 10 10 11 10 11 10 8 10 10 11 12 14 15 14 20 19 13 10 8 7 5 7 6 6 5 2 1 1 3 3
12 15 17 17 18 15 10 10 12 13 11 12 12 12 11 10 12 11 12 8 11 10 11 11 10 17 14 18 17 13 7 9 8 7 6 6 4 5 5 1 1 2 1
15 16 15 16 17 15 12 14 12 11 11 11 11 12 12 12 11 11 11 12 12 12 12 12 11 13 14 14 16 12 9 8 7 7 5 4 7 7 5 4 1 0 2
19 16 15 14 16 16 13 16 16 6 9 10 11 12 13 10 11 14 12 13 14 15 13 13 11 9 11 15 14 13 11 11 9 6 5 6 10 9 7 4 3 3 2
18 17 15 15 14 16 14 16 16 5 7 8 8 10 11 11 13 16 15 12 14 12 11 10 11 9 8 8 16 14 14 11 7 7 8 10 10 9 6 7 6 3 2
18 16 17 16 15 14 14 16 9 9 8 10 10 10 12 12 11 10 11 12 12 13 12 12 11 11 9 8 7 7 8 9 8 9 8 6 6 5 5 3 4 2 3
17 15 16 17 19 15 12 10 7 8 10 10 10 10 10 12 11 9 9 10 12 11 13 12 13 14 11 9 11 11 9 8 8 9 7 7 5 5 4 4 3 3 3
18 18 19 17 19 16 13 11 8 11 11 11 10 10 11 10 10 11 8 9 13 20 12 18 16 7 13 20 18 15 14 15 13 8 7 6 5 5 4 4 3 3 3
Wind_Direction
248 257 254 223 225 228 214 213 207 205 191 197 199 204 211 209 209 216 211 203 197 198 200 201 198 197 202 202 200 199 186 178 192 191 218 245 238 241 241 226 206 159 154
242 257 263 267 233 221 216 217 215 205 199 196 204 207 207 216 214 207 214 209 203 197 199 202 202 201 204 204 201 189 146 124 169 150 114 261 202 190 183 177 159 141 131
249 249 247 249 255 245 224 221 219 208 204 204 195 197 183 203 200 210 205 207 204 200 199 200 201 200 201 198 195 182 177 150 181 212 137 139 237 321 167 189 182 159 234
236 246 249 250 237 237 238 230 225 217 209 199 196 198 202 199 211 209 199 194 205 203 197 196 198 198 197 197 195 178 174 136 170 134 199 47 78 206 284 153 162 247 234
223 231 235 241 239 236 241 237 225 214 205 197 200 201 212 216 205 192 190 192 195 199 193 193 196 199 199 198 189 168 169 180 173 162 156 148 161 173 235 275 246 233 242
234 233 238 248 241 224 222 220 218 216 203 202 202 203 209 208 198 192 186 188 189 194 190 189 193 196 194 186 184 182 173 167 165 167 159 159 168 186 198 233 263 286 296
255 263 272 260 251 227 224 213 213 212 201 202 205 210 211 209 206 195 189 177 181 193 193 184 185 189 182 171 166 174 174 158 163 154 147 163 137 161 192 246 282 287 320
266 267 264 269 262 239 215 204 210 214 203 204 211 208 207 206 209 201 194 188 191 194 186 184 180 176 164 162 155 148 143 141 142 138 146 135 136 155 152 199 232 280 251
285 287 286 270 278 279 251 221 216 220 210 209 210 211 203 201 202 200 195 188 186 194 174 173 166 160 153 144 143 144 141 129 124 134 131 144 134 139 137 154 180 230 292
357 351 342 324 297 288 290 282 258 244 232 225 212 207 203 202 202 192 191 186 177 170 166 166 158 154 148 147 148 144 150 141 143 144 148 141 143 134 143 168 187 202 247
344 342 345 349 339 325 318 299 278 263 250 233 218 212 207 202 197 190 183 176 169 168 164 165 157 157 152 146 138 143 146 132 126 146 147 148 148 153 164 180 198 210 222
332 335 344 345 350 348 343 331 311 268 255 245 230 215 210 194 186 178 163 157 162 169 167 160 155 150 143 140 136 136 139 142 149 148 161 150 147 159 177 191 192 225 236
337 338 345 349 348 345 339 338 317 299 274 246 226 211 189 178 174 161 153 159 156 158 156 151 149 147 140 137 135 133 128 127 151 160 163 161 161 171 175 180 201 227 259
330 331 336 342 342 341 336 337 328 305 291 238 199 168 154 160 157 157 157 153 158 152 151 150 147 142 140 140 137 134 143 143 166 153 165 154 169 170 174 186 204 237 263
323 322 324 330 332 331 336 343 334 307 280 207 163 165 153 156 156 153 157 150 158 154 151 148 144 141 143 145 143 147 139 153 152 168 148 146 166 151 146 178 188 234 264
307 312 311 318 325 328 330 330 331 304 262 228 200 168 161 159 161 154 152 151 151 151 150 152 151 145 144 141 141 151 150 159 157 157 137 154 162 147 144 129 110 272 268
298 302 298 309 314 318 318 322 319 318 252 231 194 179 167 158 156 153 159 159 156 152 151 148 144 138 130 136 136 141 149 148 164 148 162 162 158 157 158 172 217 235 247
285 289 293 301 305 311 306 310 314 306 263 238 202 188 174 163 165 163 159 153 156 156 151 141 138 130 133 135 135 136 134 152 144 156 150 148 146 147 148 202 275 294 289
277 281 286 292 299 302 301 301 307 302 276 252 218 197 191 174 159 161 158 141 141 135 137 140 137 131 134 139 140 134 136 123 122 140 141 135 135 138 168 120 8 313 284
268 281 284 289 297 292 283 286 290 297 288 257 226 203 188 181 174 152 151 149 144 138 131 127 131 133 133 142 139 142 135 136 143 138 136 135 132 156 140 100 1 323 333
271 271 271 281 283 285 285 281 280 273 275 263 225 204 186 167 162 151 146 140 136 133 136 129 128 130 135 139 146 145 144 144 143 140 146 139 155 140 125 93 79 279 297
280 260 262 269 271 277 282 277 272 258 262 254 213 192 175 157 149 141 143 140 143 137 142 135 125 126 133 142 150 142 131 142 138 140 144 150 151 137 119 104 77 63 30
272 266 262 264 261 267 268 267 271 255 243 207 188 170 155 150 151 145 146 147 147 146 146 145 138 137 137 142 148 145 140 139 128 133 143 142 135 124 103 95 84 64 75
273 265 262 259 256 257 257 249 271 282 212 178 161 152 147 144 154 146 155 158 162 157 152 152 144 140 144 146 153 146 143 127 123 132 133 123 117 100 103 99 84 86 75
272 261 246 249 258 262 250 244 246 240 209 164 155 155 148 150 149 147 163 175 160 160 160 157 145 148 155 168 157 150 146 147 139 129 133 139 132 126 127 104 94 86 76
276 269 257 245 249 256 249 252 227 206 173 158 157 158 150 146 147 131 117 88 119 125 134 146 146 134 133 146 146 144 138 133 139 145 142 130 132 140 130 131 115 94 92